[[{"header":{"parameterUnit":"m.s-1","parameterCategory":1,"la1":30.2991,"la2":30.254,"lo1":-89.0895,"lo2":-89.0444,"dy":0.0017,"dx":0.0017,"nx":28,"ny":28,"refTime":"2025-11-05T03:00:00:Z","depth":0,"parameterNumber":2,"parameterNumberName":"U-component_of_WINDS"},"data":[0,0,0,0,0,0,0,0,0,0,0,0,0,0,0,0,0,0,0,0,0,0,0,0,0,0,0,0,0,0,0,0,0,0,0,0,0,0,0,0,0,0,0,0,0,0,0,0,0,0,0,0,0,0,0,0,0,0,-0.3045,-0.3045,0,-0.3036,-0.3036,-0.3036,-0.2975,-0.2973,-0.2972,-0.297,-0.2965,-0.2966,-0.2967,0,0,0,0,0,0,0,0,0,0,0,0,0,-0.3013,-0.3014,-0.3045,-0.3045,-0.3045,-0.3036,-0.3036,-0.3036,-0.2975,-0.2973,-0.2971,-0.297,-0.2964,-0.2966,-0.2967,0,0,0,0,0,0,0,0,0,0,0,0,0,-0.3018,-0.3014,-0.3045,-0.3013,-0.301,-0.3036,-0.3036,-0.3036,-0.2976,-0.2973,-0.2971,-0.2969,-0.2964,-0.2966,-0.2968,-0.3024,0,0,-0.2973,-0.2974,0,0,0,0,0,0,0,0,-0.3018,-0.3019,-0.3018,-0.3015,-0.3012,-0.3004,-0.3023,-0.3032,-0.2976,-0.2989,-0.297,-0.2968,-0.298,-0.298,-0.2984,-0.3024,-0.3024,-0.2974,-0.2975,-0.2975,-0.2976,0,0,0,0,0,0,0,-0.3017,-0.3019,-0.3041,-0.3018,-0.3015,-0.3001,-0.2999,-0.3024,-0.2997,-0.2988,-0.2983,-0.2983,-0.2978,-0.2982,-0.2983,-0.3024,-0.2973,-0.2975,-0.2976,-0.2977,-0.3112,-0.3115,0,0,0,0,0,0,-0.3021,-0.3019,-0.3042,-0.3041,-0.3009,-0.3003,-0.3001,-0.3009,-0.2997,-0.2993,-0.2985,-0.298,-0.298,-0.2981,-0.2983,-0.305,-0.2975,-0.2977,-0.2978,-0.311,-0.3113,-0.3115,0,0,0,0,0,0,-0.302,-0.3023,-0.3042,-0.3029,-0.303,-0.3006,-0.3016,-0.301,-0.3014,-0.2995,-0.299,-0.2994,-0.2978,-0.298,-0.3015,-0.3049,-0.2978,-0.298,-0.3107,-0.3111,-0.3114,-0.3184,0,0,0,0,0,0,-0.302,-0.3024,-0.3044,-0.303,-0.3031,-0.3073,-0.3018,-0.3012,-0.3017,-0.3011,-0.3002,-0.2998,-0.2977,-0.3012,-0.3017,-0.305,-0.2981,-0.3104,-0.3109,-0.3113,-0.3178,-0.3189,-0.3199,0,0,0,0,0,-0.3019,-0.3064,-0.3045,-0.3048,-0.3056,-0.3075,-0.3076,-0.305,-0.302,-0.3041,-0.3029,-0.2998,-0.3044,-0.3016,-0.3021,-0.3055,-0.3101,-0.3107,-0.3113,-0.3174,-0.3187,-0.3199,0,0,0,0,0,0,-0.3084,-0.3062,-0.3041,-0.3082,-0.3081,-0.3065,-0.309,-0.3065,-0.3072,-0.3066,-0.3034,-0.3033,-0.3073,-0.3067,-0.3036,-0.3111,-0.3068,-0.3074,-0.3113,-0.3125,-0.3135,-0.3137,-0.2983,0,0,0,0,0,-0.3103,-0.3119,-0.3099,-0.3139,-0.3139,-0.3115,-0.3122,-0.3102,-0.31,-0.3099,-0.3089,-0.3089,-0.3104,-0.3114,-0.3126,-0.3177,-0.3175,-0.3203,-0.3213,-0.3222,-0.3229,-0.3257,-0.327,-0.3134,-0.3134,-0.3133,0,0,-0.3143,-0.3133,-0.3145,-0.3151,-0.3148,-0.3167,-0.3115,-0.3137,-0.3151,-0.3103,-0.3135,-0.3128,-0.3126,-0.3169,-0.3188,-0.3166,-0.3266,-0.3229,-0.3236,-0.3238,-0.3264,-0.3277,-0.3289,-0.3137,-0.3137,-0.3136,0,0,-0.3226,-0.3219,-0.3252,-0.3249,-0.3244,-0.3228,-0.3236,-0.3224,-0.3217,-0.3249,-0.3213,-0.323,-0.3255,-0.3256,-0.326,-0.3344,-0.3317,-0.3349,-0.3403,-0.3431,-0.3442,-0.3451,-0.3483,-0.3495,-0.3355,-0.3355,-0.3355,0,-0.3277,-0.3303,-0.3272,-0.3297,-0.3301,-0.3257,-0.3291,-0.3291,-0.3291,-0.3296,-0.3271,-0.3302,-0.3297,-0.3341,-0.3362,-0.3366,-0.3376,-0.335,-0.3443,-0.3452,-0.346,-0.349,-0.3502,-0.3359,-0.3359,-0.3358,-0.3358,0,-0.3366,-0.3385,-0.3412,-0.3413,-0.342,-0.3449,-0.3424,-0.3436,-0.3415,-0.3403,-0.3436,-0.3429,-0.344,-0.3449,-0.3429,-0.349,-0.3477,-0.3448,-0.3405,-0.3478,-0.3506,-0.3517,-0.3365,-0.3364,-0.3362,-0.3361,0,0,-0.349,-0.3473,-0.3484,-0.3484,-0.3476,-0.3491,-0.3519,-0.3529,-0.354,-0.3542,-0.3566,-0.3588,-0.3562,-0.3566,-0.3546,-0.357,-0.364,-0.3538,-0.3538,-0.3559,-0.371,-0.3733,-0.3747,-0.3621,-0.3624,-0.3625,-0.3711,0,-0.3571,-0.3617,-0.359,-0.3641,-0.3659,-0.3618,-0.3643,-0.3641,-0.363,-0.3645,-0.3633,-0.3651,-0.3613,-0.3615,-0.3638,-0.3627,-0.367,-0.362,-0.3646,-0.3647,-0.3649,-0.3761,-0.3786,-0.3867,-0.3721,-0.3723,-0.3724,0,-0.3672,-0.3677,-0.3729,-0.3719,-0.3726,-0.3748,-0.3756,-0.377,-0.3768,-0.3758,-0.3764,-0.3738,-0.3767,-0.3723,-0.3763,-0.3729,-0.3738,-0.3734,-0.3737,-0.374,-0.3691,-0.3769,-0.3892,-0.3905,-0.3741,-0.374,-0.3738,0,-0.3759,-0.378,-0.3814,-0.3815,-0.3803,-0.3821,-0.3817,-0.3813,-0.3821,-0.3828,-0.3833,-0.3843,-0.385,-0.3859,-0.3838,-0.3807,-0.3882,-0.3835,-0.3876,-0.3877,-0.3895,-0.3895,-0.4023,-0.3898,-0.3898,-0.3898,-0.3897,0,-0.3853,-0.3887,-0.3853,-0.3874,-0.3912,-0.3882,-0.392,-0.3912,-0.3909,-0.3929,-0.3894,-0.3914,-0.3884,-0.3902,-0.3885,-0.3922,-0.3925,-0.3919,-0.3915,-0.3923,-0.3924,-0.393,-0.3925,-0.3901,-0.39,-0.3899,-0.3899,0,-0.3958,-0.3936,-0.3971,-0.3957,-0.3954,-0.3983,-0.3972,-0.3992,-0.3978,-0.4005,-0.4009,-0.3989,-0.4008,-0.3987,-0.4004,-0.3993,-0.4044,-0.403,-0.4044,-0.4041,-0.4084,-0.4081,-0.4222,-0.424,-0.4102,-0.4103,-0.4104,0,-0.402,-0.4045,-0.4034,-0.4045,-0.4043,-0.406,-0.4068,-0.404,-0.405,-0.4051,-0.4071,-0.4087,-0.4098,-0.4131,-0.4119,-0.4133,-0.412,-0.4169,-0.4122,-0.4131,-0.4123,-0.4123,-0.4126,-0.4179,-0.418,-0.4182,-0.4183,0,-0.4134,-0.4122,-0.4134,-0.4143,-0.4153,-0.4159,-0.4163,-0.4174,-0.4145,-0.4158,-0.4177,-0.4186,-0.4203,-0.4221,-0.4231,-0.4228,-0.4202,-0.4197,-0.4208,-0.4218,-0.4226,-0.4224,-0.4072,-0.4195,-0.4193,-0.4193,-0.4192,-0.4191,-0.422,-0.4241,-0.4237,-0.4252,-0.4252,-0.4256,-0.4275,-0.4264,-0.4278,-0.429,-0.4273,-0.4297,-0.4296,-0.4307,-0.4308,-0.4327,-0.4307,-0.4322,-0.4326,-0.433,-0.4338,-0.4221,-0.4329,-0.4329,-0.4328,-0.4328,-0.4328,0,-0.4334,-0.4329,-0.4343,-0.4349,-0.4362,-0.4334,-0.4336,-0.4349,-0.4371,-0.4371,-0.4383,-0.4406,-0.4423,-0.4412,-0.4426,-0.4444,-0.4433,-0.4449,-0.4449,-0.4449,-0.4354,-0.4344,-0.4458,-0.4458,-0.4458,-0.4458,-0.4458,-0.4458,-0.4394,-0.4429,-0.4417,-0.4452,-0.4447,-0.447,-0.4474,-0.4478,-0.4479,-0.4506,-0.4519,-0.4511,-0.4508,-0.4523,-0.4537,-0.4534,-0.4542,-0.4563,-0.4556,-0.4468,-0.4455,-0.4443,-0.4434,-0.4565,-0.4565,-0.4649,-0.465,-0.4651]},{"header":{"parameterUnit":"m.s-1","parameterCategory":1,"la1":30.2991,"la2":30.254,"lo1":-89.0895,"lo2":-89.0444,"dy":0.0017,"dx":0.0017,"nx":28,"ny":28,"refTime":"2025-11-05T03:00:00:Z","depth":0,"parameterNumber":3,"parameterNumberName":"V-component_of_WINDS"},"data":[0,0,0,0,0,0,0,0,0,0,0,0,0,0,0,0,0,0,0,0,0,0,0,0,0,0,0,0,0,0,0,0,0,0,0,0,0,0,0,0,0,0,0,0,0,0,0,0,0,0,0,0,0,0,0,0,0,0,-0.5152,-0.5152,0,-0.5159,-0.5159,-0.5159,-0.5176,-0.5176,-0.5177,-0.5177,-0.5185,-0.5184,-0.5184,0,0,0,0,0,0,0,0,0,0,0,0,0,-0.5155,-0.5155,-0.5152,-0.5152,-0.5152,-0.5159,-0.5159,-0.5159,-0.5176,-0.5176,-0.5177,-0.5177,-0.5185,-0.5184,-0.5184,0,0,0,0,0,0,0,0,0,0,0,0,0,-0.5157,-0.5155,-0.5152,-0.5162,-0.5162,-0.5159,-0.5159,-0.5159,-0.5176,-0.5176,-0.5177,-0.5177,-0.5185,-0.5184,-0.5184,-0.5172,0,0,-0.5184,-0.5183,0,0,0,0,0,0,0,0,-0.5157,-0.5157,-0.516,-0.5161,-0.5162,-0.5167,-0.5162,-0.5163,-0.5176,-0.5171,-0.5177,-0.5178,-0.5178,-0.5179,-0.5179,-0.5172,-0.5173,-0.5184,-0.5183,-0.5183,-0.5183,0,0,0,0,0,0,0,-0.5157,-0.5157,-0.5155,-0.516,-0.5161,-0.5166,-0.5166,-0.5163,-0.5171,-0.5171,-0.5172,-0.5173,-0.5179,-0.5179,-0.5179,-0.5173,-0.5184,-0.5183,-0.5183,-0.5183,-0.5156,-0.5155,0,0,0,0,0,0,-0.5155,-0.5156,-0.5155,-0.5155,-0.5161,-0.5165,-0.5166,-0.5165,-0.5171,-0.5173,-0.5172,-0.5174,-0.5179,-0.5179,-0.5179,-0.5165,-0.5183,-0.5183,-0.5183,-0.5156,-0.5155,-0.5155,0,0,0,0,0,0,-0.5155,-0.5155,-0.5154,-0.5156,-0.5156,-0.5164,-0.5163,-0.5165,-0.5165,-0.5172,-0.5174,-0.5171,-0.5179,-0.518,-0.5173,-0.5165,-0.5183,-0.5183,-0.5157,-0.5156,-0.5155,-0.5136,0,0,0,0,0,0,-0.5155,-0.5155,-0.515,-0.5156,-0.5156,-0.5148,-0.5162,-0.5164,-0.5164,-0.5166,-0.5171,-0.5173,-0.518,-0.5174,-0.5173,-0.5165,-0.5183,-0.5158,-0.5156,-0.5155,-0.5137,-0.5135,-0.5132,0,0,0,0,0,-0.5155,-0.5145,-0.515,-0.5149,-0.5151,-0.5148,-0.5148,-0.5156,-0.5163,-0.5159,-0.5164,-0.5173,-0.5166,-0.5173,-0.5172,-0.5164,-0.5158,-0.5157,-0.5155,-0.5139,-0.5135,-0.5132,0,0,0,0,0,0,-0.5139,-0.5146,-0.5151,-0.5143,-0.5144,-0.5151,-0.5145,-0.5152,-0.5152,-0.5154,-0.5164,-0.5165,-0.5157,-0.516,-0.5168,-0.5152,-0.5164,-0.5162,-0.5151,-0.5148,-0.5145,-0.5145,-0.5183,0,0,0,0,0,-0.5134,-0.5131,-0.5137,-0.5129,-0.513,-0.5137,-0.5136,-0.5142,-0.5144,-0.5145,-0.515,-0.5152,-0.515,-0.5149,-0.5148,-0.5138,-0.5139,-0.5132,-0.5129,-0.5127,-0.5126,-0.512,-0.5117,-0.515,-0.515,-0.515,0,0,-0.5125,-0.5128,-0.5126,-0.5126,-0.5128,-0.5124,-0.5138,-0.5134,-0.5131,-0.5145,-0.5139,-0.5142,-0.5145,-0.5136,-0.5133,-0.5139,-0.5117,-0.5125,-0.5124,-0.5124,-0.5118,-0.5115,-0.5112,-0.5149,-0.515,-0.515,0,0,-0.5106,-0.5108,-0.5101,-0.5102,-0.5105,-0.511,-0.5108,-0.5113,-0.5115,-0.5109,-0.5119,-0.5116,-0.5113,-0.5115,-0.5115,-0.5095,-0.5103,-0.5094,-0.5081,-0.5075,-0.5072,-0.507,-0.5062,-0.5059,-0.5093,-0.5093,-0.5093,0,-0.5094,-0.5089,-0.5097,-0.5092,-0.5091,-0.5102,-0.5095,-0.5096,-0.5099,-0.5098,-0.5104,-0.51,-0.5103,-0.5095,-0.5089,-0.5089,-0.5088,-0.5094,-0.5072,-0.507,-0.5068,-0.506,-0.5058,-0.5092,-0.5092,-0.5092,-0.5092,0,-0.5074,-0.507,-0.5064,-0.5065,-0.5064,-0.5058,-0.5064,-0.5062,-0.5068,-0.5072,-0.5065,-0.5069,-0.5068,-0.5067,-0.5073,-0.5059,-0.5062,-0.507,-0.5081,-0.5063,-0.5057,-0.5054,-0.509,-0.5091,-0.5091,-0.5091,0,0,-0.5046,-0.505,-0.5048,-0.5048,-0.5051,-0.5048,-0.5042,-0.5041,-0.5039,-0.5039,-0.5035,-0.5031,-0.5038,-0.5038,-0.5044,-0.5039,-0.5022,-0.5047,-0.5047,-0.5042,-0.5006,-0.5,-0.4997,-0.5027,-0.5027,-0.5026,-0.5006,0,-0.5027,-0.5017,-0.5024,-0.5013,-0.5009,-0.5019,-0.5014,-0.5015,-0.5018,-0.5015,-0.5019,-0.5016,-0.5026,-0.5026,-0.5021,-0.5025,-0.5015,-0.5027,-0.5023,-0.5022,-0.5022,-0.4994,-0.4988,-0.4969,-0.5003,-0.5003,-0.5003,0,-0.5005,-0.5004,-0.4992,-0.4995,-0.4994,-0.4989,-0.4988,-0.4985,-0.4986,-0.4989,-0.4988,-0.4995,-0.4989,-0.5,-0.4992,-0.5,-0.4998,-0.5,-0.4999,-0.5,-0.5012,-0.4993,-0.4963,-0.496,-0.4999,-0.4999,-0.4999,0,-0.4986,-0.4981,-0.4973,-0.4973,-0.4976,-0.4972,-0.4973,-0.4975,-0.4974,-0.4973,-0.4972,-0.497,-0.4969,-0.4968,-0.4974,-0.4981,-0.4965,-0.4976,-0.4967,-0.4967,-0.4964,-0.4964,-0.4932,-0.4962,-0.4962,-0.4962,-0.4962,0,-0.4965,-0.4957,-0.4964,-0.496,-0.4951,-0.4958,-0.495,-0.4952,-0.4953,-0.4949,-0.4957,-0.4953,-0.4961,-0.4958,-0.4963,-0.4955,-0.4955,-0.4956,-0.4958,-0.4956,-0.4955,-0.4955,-0.4957,-0.4962,-0.4962,-0.4962,-0.4962,0,-0.4942,-0.4946,-0.4939,-0.4941,-0.4942,-0.4936,-0.4938,-0.4934,-0.4937,-0.4931,-0.493,-0.4936,-0.4932,-0.4938,-0.4935,-0.4938,-0.4927,-0.493,-0.4926,-0.4927,-0.4918,-0.4918,-0.4885,-0.4881,-0.4913,-0.4913,-0.4913,0,-0.4929,-0.4923,-0.4925,-0.4922,-0.4922,-0.4918,-0.4916,-0.4923,-0.4921,-0.492,-0.4916,-0.4913,-0.4911,-0.4904,-0.4908,-0.4905,-0.4909,-0.4897,-0.4908,-0.4906,-0.4908,-0.4909,-0.4908,-0.4895,-0.4895,-0.4894,-0.4894,0,-0.4904,-0.4906,-0.4903,-0.49,-0.4898,-0.4896,-0.4895,-0.4893,-0.4899,-0.4896,-0.4892,-0.489,-0.4886,-0.4883,-0.4881,-0.4882,-0.4889,-0.489,-0.4888,-0.4886,-0.4884,-0.4885,-0.492,-0.4891,-0.4892,-0.4892,-0.4892,-0.4892,-0.4886,-0.4881,-0.4881,-0.4877,-0.4876,-0.4875,-0.487,-0.4873,-0.4869,-0.4866,-0.487,-0.4865,-0.4865,-0.4863,-0.4863,-0.4859,-0.4864,-0.4861,-0.486,-0.4859,-0.4858,-0.4884,-0.4859,-0.4859,-0.4859,-0.4859,-0.4859,0,-0.4862,-0.4862,-0.4858,-0.4856,-0.4852,-0.4858,-0.4857,-0.4854,-0.4849,-0.4848,-0.4845,-0.484,-0.4836,-0.4839,-0.4836,-0.4832,-0.4835,-0.4831,-0.4831,-0.4831,-0.4853,-0.4856,-0.4828,-0.4828,-0.4828,-0.4828,-0.4828,-0.4828,-0.4849,-0.484,-0.4842,-0.4833,-0.4834,-0.4828,-0.4827,-0.4825,-0.4825,-0.4818,-0.4815,-0.4816,-0.4817,-0.4813,-0.481,-0.4811,-0.481,-0.4804,-0.4806,-0.4827,-0.483,-0.4833,-0.4835,-0.4804,-0.4804,-0.4785,-0.4785,-0.4784]}]]